Location: Big Humbug Creek
(37.8930°N, 120.2199°W)
Time: 15:54:05
(UTC+00:00)

Cosmos 1417 Rocket - Pass Details

Date: 03 August 2024
Orbit: 952 x 997 km, 83.0° (Epoch: 08 September)

Event Time Altitude Azimuth Distance (km) Brightness Sun altitude
Rises 12:09:55 0° 185° (S) 3,618 7.1 -10.7°
Reaches altitude 10° 12:12:24 10° 186° (S) 2,673 6.5 -10.3°
Maximum altitude 12:18:31 88° 272° (W) 958 4.5 -9.3°
Drops below altitude 10° 12:24:40 10° 6° (N) 2,687 7.3 -8.2°
Sets 12:27:10 0° 7° (N) 3,639 8.1 -7.8°
